CZ-3C DEB, 40195

Orbit data source: Space-Track

CZ-3C DEB, 40195 is space debris in HEO originally from a launch on Fri, 24 Feb 2012 UTC launched from the Xichang Space Center, China (XSC). Debris objects in space refer to the collection of defunct objects orbiting the Earth. Examples of debris include non-operational satellites, rocket bodies, and fragments generated from explosions, collisions, or faulty payload assembly.

Loading next visibility...
CZ-3C DEB details
Identifier
40195, 2012-008E
Orbit
HEO
Last TLE update2 days ago
Origin
Flag of CNCASC (CN / PRC)
ManufacturerCALT
MissionSpacecraft
Bus & MotorUnknown
MassUnknown
Launch date (UTC)
2012-02-24 (13 years ago)
Launch vehicleUnknown
Launch site
Xichang Space Center, China (XSC)
Object type
Payload
Rocket body
Debris
Shape & HBRUnknown
Radar Cross SectionMedium (>0.1 m² and <1 m²)

Expand to show TLE details & history

TLE from 2 days ago
0 CZ-3C DEB
1 40195U 12008E   24359.97389661  .00004137  00000-0  11754-1 0  9996
2 40195  20.6107  35.3706 7129294 183.2682 166.3236  2.38435932  4229
Epoch: 2024-12-24T23:22Z
Definitive object data (Epoch: 2024-12-24T23:22:24.667Z)
Latitude0.00004°
Longitude-49.19976°
Altitude33,985.966 km
Speed1.706 km/s
True Right ascension02h 21m 30s
True Declination0° 00' 00"
Sunlit
Object was in daylight at TLE epoch
Visualization TLE readout
Latitude-16.07747°
Longitude-99.59772°
Altitude12,963.504 km
Speed4.937 km/s
Apparent Right ascension23h 04m 14s
Apparent Declination-21° 51' 38"
Sunlit
Object is in daylight
Visualization observer readout
Local Sidereal Time11:20:40
Azimuth12.16° NNE
Elevation-71.61°
Doppler factor1
Orbital elements
Apogee altitude34,170.325 km
Perigee altitude417.398 km
Semi-major axis23,671.999 km
Eccentricity0.7129294
Inclination20.6107°
RAAN35.3706°
Arg. of periapsis183.2682°
True anomaly176.72259°
Mean anomaly166.3236°
Eccentric anomaly172.00499°
Mean motion0.59592 °/min
BSTAR0.011754
Orbital period604.1 mins
Loading maneuver chart data...
Loading historical data...
Loading historical data...
Loading historical data...
Loading historical data...
Loading historical data...
Loading historical data...
Loading historical data...

CZ-3C DEB Visibility forecast

Observer location: undefined°, undefined

Span
Click to sort rows by Start time (UTC) header in descending order
Start Az.
Max El. time (UTC)
Max El. Az.
Max El.
End time (UTC)
End Az.
524 mins2024-12-26 22:00:13.672Z155.057° SSE2024-12-27 05:48:13.672Z167.199° S39.929°2024-12-27 06:44:13.672Z103.566° ESE
|